BEIDOU IGSO-6 (C13)

Last updated on Mon Feb 13 2023 00:03:21 GMT+0000 (Coordinated Universal Time)

1 41434U 16021A 23043.35281329 -.00000132 00000+0 00000+0 0 9996 2 41434 58.4503 50.3567 0049124 225.3476 89.7369 1.00279174 25233

Satellite not in orbit

BEIDOU IGSO-6 (C13)